Regional Weather Roundup
Issued by NWS

Home | Current Version | Previous Version | Text Only | Print | Product List | Glossary On
Versions: 1 2 3 4 5 6 7 8 9 10 11 12 13 14 15 16 17 18 19 20 21 22 23 24 25 26 27 28 29 30 31 32 33 34 35 36 37 38 39 40 41 42 43 44 45 46 47 48 49 50
000
ASUS45 KREV 281310
RWRNV
NEVADA REGIONAL WEATHER ROUNDUP
NATIONAL WEATHER SERVICE RENO NV
600 AM PDT THU AUG 28 2014

NOTE: "FAIR" INDICATES FEW OR NO CLOUDS BELOW 12,000 FEET WITH NO
SIGNIFICANT WEATHER AND/OR OBSTRUCTIONS TO VISIBILITY.

NVZ001-003-004-281400-
WESTERN NEVADA

CITY           SKY/WX    TMP DP  RH WIND       PRES   REMARKS
RENO           CLEAR     62  43  49 CALM      30.22S
CARSON CITY    FAIR      55  43  62 CALM      30.24S
MINDEN           N/A    N/A N/A N/A MISG        N/A
SLIDE MTN        N/A     55  34  44 CALM        N/A
FALLON         CLEAR     58  30  34 SE9       30.16R
LOVELOCK       CLEAR     50  30  46 E6        30.16R
HAWTHORNE      CLEAR     61  34  36 CALM      30.20R
$$

NVZ002-CAZ072-073-281400-
NORTHERN AND CENTRAL SIERRA

CITY           SKY/WX    TMP DP  RH WIND       PRES   REMARKS
S. LAKE TAHOE  CLEAR     47  39  74 S3        30.34S
TRUCKEE        CLEAR     41  39  93 CALM      30.34S FOG
SQUAW VLY 8000 NOT AVBL
SUSANVILLE     CLEAR     57  41  54 W6        30.20S
BLUE CANYON    CLEAR     65  42  43 CALM      30.29S
MAMMOTH LAKES  FAIR      39  27  60 N3        30.40S
BRIDGEPORT     FAIR      42  29  59 CALM      30.36F
$$

NVZ030-031-036-281400-
NORTHERN NEVADA

CITY           SKY/WX    TMP DP  RH WIND       PRES   REMARKS
ELKO           CLEAR     45  37  73 SE3       30.26R
WINNEMUCCA     CLEAR     50  31  48 E6        30.19
WENDOVER       CLEAR     61  45  55 CALM      30.20S
$$

NVZ035-037-281400-
CENTRAL NEVADA

CITY           SKY/WX    TMP DP  RH WIND       PRES   REMARKS
ELY            CLEAR     43  39  86 S14       30.34R
EUREKA           N/A     49  31  49 S10       30.30
$$

NVZ013-014-281400-
SOUTH CENTRAL NEVADA

CITY           SKY/WX    TMP DP  RH WIND       PRES   REMARKS
TONOPAH        CLEAR     57  29  34 N13       30.28R
$$

NVZ017-020-022-281400-
SOUTHERN NEVADA

CITY           SKY/WX    TMP DP  RH WIND       PRES   REMARKS
LAS VEGAS      CLEAR     77  37  23 SW8       30.01R
N. LAS VEGAS   CLEAR     75  37  25 NW6       30.04R
NELLIS AFB     CLEAR     74  36  25 NW2       30.03R
HENDERSON      CLEAR     73  38  28 S7        30.07R
MERCURY        CLEAR     65  32  29 NW3       30.11S
$$


USA.gov is the U.S. government's official web portal to all federal, state and local government web resources and services.